Content
SEND FEEDBACK

Daily
Averages
Monthly
Summary
United States of America

EAST WENATCHEE, WASHINGTON


Home > North America > United States > Washington
Elevation: 344 meters     Latitude: 47 24N     Longitude: 120 12W

WEATHER
 
SELECT A DAY
Number of Records: 244,151;   Date Range: 1/1/95 - 7/23/14
 
SHARE

PRINT THIS DATA

[ ← Previous Day ]
WEATHER ALMANAC - 3 JANUARY, 2013
[ Next Day → ]
[ °F ]   °C
Weather ElementAverageHighLow
Temperature-4.5 °C-3.9 °C (12:55 pm)-5 °C (4:55 am)
Dewpoint-8 °C-7.2 °C (1:55 am)-8.9 °C (8:55 am)
Humidity76.9 %81 % (1:55 am)72 % (12:55 pm)
Barometer1030.8 hPa1033.9 hPa (1:55 am)1029.1 hPa (6:55 pm)
Wind Speed2.1 km/h9.3 km/h (11:55 am)
Weather ElementAverage
Visibility15.9 km
Wind DirectionENE (80.9 °)

Weather ElementTotal
Precipitation---
Heating Degree Days22.8 (Base 18.3)
Averaged from 23 records on 3 January, 2013
WEATHER CONDITIONS BREAKOUT
WIND DIRECTION BREAKOUT
WEATHER BY HOUR - 3 JANUARY, 2013
[ °F ]   °C
Local TimeTemperatureDewpointHumidityBarometerVisibilityWind DirectionWind SpeedGust SpeedPrecipitationEventsConditions
1:55 AM-4.4 °C-7.2 °C81 %1033.9 hPa16.1 kmCalmOvercast
2:55 AM-4.4 °C-7.8 °C77 %1033.5 hPa16.1 kmWNW (290°)5.6 km/hOvercast
3:55 AM-4.4 °C-7.8 °C77 %1033.2 hPa16.1 kmCalmOvercast
4:55 AM-5 °C-7.8 °C81 %1032.5 hPa16.1 kmCalmOvercast
5:55 AM-5 °C-8.3 °C78 %1032.2 hPa16.1 kmCalmOvercast
6:55 AM-5 °C-8.3 °C78 %1032.2 hPa11.3 kmWSW (250°)5.6 km/h0 mmSnowLight Snow
7:55 AM-5 °C-8.3 °C78 %1032.2 hPa16.1 kmCalm0 mmOvercast
8:55 AM-5 °C-8.9 °C74 %1032.2 hPa16.1 kmWest (270°)7.4 km/hOvercast
9:55 AM-5 °C-8.3 °C78 %1032.5 hPa16.1 kmCalmOvercast
10:55 AM-4.4 °C-8.3 °C75 %1032.2 hPa16.1 kmWNW (300°)5.6 km/hOvercast
11:55 AM-4.4 °C-8.3 °C75 %1030.8 hPa16.1 kmSW (230°)9.3 km/hOvercast
12:55 PM-3.9 °C-8.3 °C72 %1030.5 hPa16.1 kmSW (230°)5.6 km/hOvercast
1:55 PM-3.9 °C-8.3 °C72 %1029.5 hPa16.1 kmCalmOvercast
2:55 PM-3.9 °C-8.3 °C72 %1029.5 hPa16.1 kmWNW (290°)9.3 km/hOvercast
3:55 PM-3.9 °C-8.3 °C72 %1029.8 hPa16.1 kmCalmOvercast
4:55 PM-4.4 °C-7.8 °C77 %1029.8 hPa16.1 kmCalmOvercast
5:55 PM-4.4 °C-7.2 °C81 %1029.5 hPa16.1 kmCalmOvercast
6:55 PM-5 °C-7.8 °C81 %1029.1 hPa16.1 kmCalmOvercast
7:55 PM-4.4 °C-7.8 °C77 %1029.5 hPa16.1 kmCalmOvercast
8:55 PM-4.4 °C-7.8 °C77 %1029.5 hPa16.1 kmCalmOvercast
9:55 PM-4.4 °C-7.8 °C77 %1029.5 hPa16.1 kmCalmOvercast
10:55 PM-5 °C-7.8 °C81 %1029.5 hPa16.1 kmCalmOvercast
11:55 PM-4.4 °C-7.8 °C77 %1029.8 hPa16.1 kmCalmOvercast
Hourly data recorded from KEAT, located 0 kilometers away from East Wenatchee, Washington







STORIES FROM OUR PARTNERS